Location: Unspecified
(0.0000°N, 0.0000°E)
Time: 18:25:30
(UTC+00:00)

Hubble Space Telescope - Pass Details

Date: 10 May 2021
Orbit: 535 x 539 km, 28.5° (Epoch: 14 May)

Event Time Altitude Azimuth Distance (km) Brightness Sun altitude
Exits shadow 05:13:34 10° 221° (SW) 1,786 2.9 -10.2°
Reaches altitude 10° 05:13:35 10° 221° (SW) 1,777 2.9 -10.2°
Maximum altitude 05:17:28 40° 150° (SSE) 784 1.7 -9.3°
Drops below altitude 10° 05:21:20 10° 79° (E) 1,772 5.1 -8.4°
Sets 05:23:41 0° 72° (ENE) 2,661 7.0 -7.8°
